Regional Weather Roundup
Issued by NWS

Home | Current Version | Previous Version | Graphics & Text | Print | Product List | Glossary On
Versions: 1 2 3 4 5 6 7 8 9 10 11 12 13 14 15 16 17 18 19 20 21 22 23 24 25 26 27 28 29 30 31 32 33 34 35 36 37 38 39 40 41 42 43 44 45 46 47 48 49 50
000
ASUS45 KPSR 262100
RWRAZ

PRELIMINARY ARIZONA REGIONAL HOURLY WEATHER ROUNDUP
NATIONAL WEATHER SERVICE PHOENIX AZ
200 PM MST THU FEB 26 2015

NOTE: FAIR INDICATES FEW OR NO CLOUDS BELOW 12,000 FEET WITH NO
SIGNIFICANT WEATHER AND/OR OBSTRUCTIONS TO VISIBILITY.

AZZ001>003-036-262200-
NORTHWEST ARIZONA

CITY           SKY/WX    TMP DP  RH WIND       PRES   REMARKS
KINGMAN        PTSUNNY   62  21  20 VRB3      29.87F
$$

AZZ004>008-015-016-018-262200-
NORTH CENTRAL ARIZONA

CITY           SKY/WX    TMP DP  RH WIND       PRES   REMARKS
GRAND CANYON   CLOUDY    46  20  35 W17G25    29.88F
PRESCOTT       FAIR      59  16  18 W16       29.88F
FLAGSTAFF      CLOUDY    42  17  36 SW25G36   29.91F
PAYSON         FAIR      55  21  26 VRB7G15   29.92F
PAGE           PTSUNNY   53  28  38 E7        29.82F
$$

AZZ009>014-017-262200-
NORTHEAST ARIZONA

CITY           SKY/WX    TMP DP  RH WIND       PRES   REMARKS
WINSLOW        NOT AVBL
SAINT JOHNS    CLOUDY    51   0  12 CALM      29.88F
WINDOW ROCK    CLOUDY    44  19  36 S10       29.90F
SHOW LOW       FAIR      48   5  17 SW16      29.93F
$$

AZZ023-262200-
GREATER PHOENIX AREA

CITY           SKY/WX    TMP DP  RH WIND       PRES   REMARKS
PHOENIX        FAIR      75  26  16 VRB7      29.81F
BUCKEYE        FAIR      72  30  21 E6        29.83F
GLENDALE       MOSUNNY   72  27  18 E6        29.84F
DEER VALLEY    FAIR      70  26  19 W6        29.82F
SCOTTSDALE     FAIR      70  25  18 S3        29.84F
MESA-FALCON    MOSUNNY   72  27  18 S7        29.82F
MESA-GATEWAY   MOSUNNY   72  28  20 CALM      29.85F
CHANDLER       MOSUNNY   73  27  17 SE7       29.83F
$$

AZZ027-028-262200-
SOUTHWEST MARICOPA COUNTY AND PINAL COUNTY

CITY           SKY/WX    TMP DP  RH WIND       PRES   REMARKS
CASA GRANDE    FAIR      72  27  18 CALM      29.83F
$$

AZZ503-504-507>509-262200-
SOUTHEAST ARIZONA

CITY           SKY/WX    TMP DP  RH WIND       PRES   REMARKS
TUCSON         FAIR      72  28  19 MISG      29.85F
RYAN FIELD       N/A     72  28  20 CALM      29.85F
NOGALES        FAIR      71  20  14 S14G22    29.88F
DOUGLAS        FAIR      64  23  21 VRB6      29.90F
SAFFORD        FAIR      65  25  22 VRB5      29.85F
$$

AZZ020-021-025-026-031-262200-
SOUTHWEST ARIZONA

CITY           SKY/WX    TMP DP  RH WIND       PRES   REMARKS
YUMA           NOT AVBL
$$

CAZ031-033-041-043-047-048-061-262200-
SOUTHERN CALIFORNIA

CITY           SKY/WX    TMP DP  RH WIND       PRES   REMARKS
DOWNTOWN L.A.  FAIR      67  48  50 CALM      29.88F
L.A. AIRPORT   PTSUNNY   63  53  70 W8        29.89F
SAN DIEGO      PTSUNNY   64  48  56 SW8       29.91F
BURBANK        FAIR      66  42  41 VRB3      29.87F
ONTARIO        FAIR      68  37  32 SW5       29.87F
RIVERSIDE      FAIR      70  38  31 CALM      29.87F
PALM SPRINGS   FAIR      79  32  18 VRB6      29.80F
EL CENTRO NAS  FAIR      77  29  17 SE5       29.78F
IMPERIAL       FAIR      77  32  19 SE6       29.79F
BLYTHE         FAIR      74  26  16 VRB3      29.80F
$$

NVZ020-UTZ003-262200-
SOUTHERN NEVADA-UTAH

CITY           SKY/WX    TMP DP  RH WIND       PRES   REMARKS
LAS VEGAS      NOT AVBL
SALT LAKE CITY FLURRIES  37  32  82 NW9       29.93F WCI  30
$$

NMZ009-TXZ055-262200-
NEW MEXICO-WEST TEXAS

CITY           SKY/WX    TMP DP  RH WIND       PRES   REMARKS
ALBUQUERQUE    CLOUDY    42  23  46 E26       29.98F
EL PASO        PTSUNNY   53  31  42 E15G25    29.98F
$$


........................KEY........................
SKY/WX - SKY CONDITION/WEATHER
TMP    - TEMPERATURE IN FAHRENHEIT
DP     - DEW POINT IN FAHRENHEIT
RH     - RELATIVE HUMIDITY IN PERCENT
WIND   - DIRECTION AND SPEED IN MILES PER HOUR (MPH)
VRB    - VARIABLE WIND DIRECTION
PRES   - MEAN SEA LEVEL PRESSURE IN INCHES OF MERCURY
         F - FALLING PRESSURE   R - RISING PRESSURE
         S - STEADY PRESSURE
VSB    - VISIBILITY IN MILES
HX     - HEAT INDEX IN FAHRENHEIT
WCI    - WIND CHILL INDEX IN FAHRENHEIT
TC     - TEMPERATURE IN CELSIUS WHICH IS ALSO KNOWN AS
         TEMPERATURE IN CENTIGRADE
AFB    - AIR FORCE BASE
         LUKE AFB IS LUKE AIR FORCE BASE
         DAVIS-MONTHAN IS DAVIS-MONTHAN AIR FORCE BASE
NAS    - NAVAL AIR STATION
         EL CENTRO NAS IS EL CENTRO NAVAL AIR STATION
N/A    - NOT AVAILABLE



USA.gov is the U.S. government's official web portal to all federal, state and local government web resources and services.